Погода в Миасском

Россия / Челябинская область     55°16′55″N   61°53′29″E
темп.,
°C
ветер,
м/с
пор.,
м/с
влажн.,
%
обл.,
%
осадки,
мм/ч
давл.,
гПа
погр.,
м
11 апреля, вс
вс1123:00+2ю4997100 0.0 1037196
02:00+1ю41194100 0.0 1037223
05:00+1ю51295100 0.0 1037285
08:00+1ююз61310093 0.0 1038326
11:00+3ююз713100100 0.0 1037360
14:00+8ююз7139285 0.0 1036482
17:00+9ююз712835 0.0 1035457
20:00+5ююз5119020 0.0 1035228
12 апреля, пн
пн1223:00+4ююз4119279 0.0 1035200
02:00+3юз3490100 0.0 103558
05:00+3юз3387100 0.0 103519
08:00+6зюз2285100 0.0 103523
11:00+11сз3679100 0.0 1036387
14:00+10с4588100 0.0 1036444
17:00+8с4695100 0.4 1037311
20:00+7с249198 0.1 1038122
13 апреля, вт
вт1323:00+6ссв2287100 0.1 103928
02:00+5св2290100 0.0 104023
05:00+3всв2288100 0.0 104114
08:00+4в227317 0.0 104294
11:00+9юв22555 0.0 1041488
14:00+12ю22459 0.0 1040837
17:00+13ююз34465 0.0 1038883
20:00+10ю33643 0.0 103720
14 апреля, ср
ср1423:00+8ююз34740 0.0 103753
02:00+7ююз36825 0.0 103689
05:00+6ююз47865 0.0 1035108
08:00+7юз378395 0.0 1034192
11:00+13юз44666 0.0 1033483
14:00+16юз345788 0.0 1031885
17:00+17зюз345451 0.0 10291120
20:00+13юз337125 0.0 102826
15 апреля, чт
чт1523:00+11юз357727 0.0 102875
02:00+9юз347751 0.0 102755
05:00+8зюз337735 0.0 102629
08:00+10зюз23745 0.0 102598
11:00+15юз22595 0.0 1024429
14:00+18юз335130 0.0 1022940
17:00+18юз33485 0.0 10201170
20:00+14ююз335657 0.0 101941